Weather in Rechnoye

Russia / Republic of Tatarstan     55°21′52″N   50°16′26″E
temp.,
°C
wind,
m/s
gust,
m/s
humid.,
%
clouds,
%
prec.,
mm/h
press.,
hPa
HPBL,
m
1 july, fri
fri100:00+9nne4791100 0.0 1010248
03:00+8nne4888100 0.0 1011336
06:00+9ne468698 0.0 1012513
09:00+12ne567685 0.1 1013920
12:00+15ene566492 0.1 10131240
15:00+17ne676193 0.1 10131490
18:00+17ne477238 0.0 1013434
21:00+13ne510905 0.0 1014231
2 july, sat
sat200:00+12ne511940 0.0 1014282
03:00+11ene49950 0.0 1014209
06:00+14ne58865 0.0 1014289
09:00+18ne67675 0.0 1015702
12:00+20ne5658100 0.0 10141174
15:00+20nne4558100 0.0 10131342
18:00+19nne36705 0.0 1012232
21:00+15ne22835 0.0 101317
3 july, sun
sun300:00+14nne22855 0.0 101222
03:00+12nne22900 0.0 101123
06:00+16e23780 0.0 1011151
09:00+19ne45640 0.0 1011588
12:00+22ne45543 0.0 10111571
15:00+21nne566499 0.4 1011945
18:00+18nne61183100 1.0 1011576
21:00+14nne37915 1.1 1012152
4 july, mon
mon400:00+12nne47900 0.0 1012133
03:00+11nne410923 0.0 1012231
06:00+14nne611852 0.0 1013507
09:00+17nne79685 0.0 1013949
12:00+20nne686056 0.3 10141532
15:00+20nne4762100 0.5 10141534
18:00+19nne367286 0.2 1014262
21:00+16n117393 0.3 101515
5 july, tue
tue500:00+13nnw338547 0.0 101526
03:00+15nnw357499 0.0 1016115
06:00+16nnw267799 0.0 1016221
09:00+20nw456580 0.0 1016526
12:00+23nnw455447 0.0 10161201
15:00+24nw365260 0.0 10151662
18:00+22w346981 0.0 1014114
21:00+18w33765 0.0 101421